Hourly Data Report for May 10, 2012

All times are specified in Local Standard Time (LST). Add 1 hour to adjust for Daylight Saving Time where and when it is observed.

LONDON A
ONTARIO

43°01'59.000" N
81°09'04.000" W
278.00 m
6144473
71623
YXU

Download Data

Hourly Data (May 2012)
Hourly Data Report for May 10, 2012
Temp Definition
°C
Dew Point Temp Definition
°C
Rel Hum Definition
%
Wind Dir Definition
10's deg

Wind Spd Definition
km/h
Visibility Definition
km
Stn Press Definition
kPa
Hmdx Definition


Wind Chill Definition


Weather Definition


TIME
00:00 Legend Double Dagger 6.7 4.9 88 32 11 10.0 97.64     LegendNANA
01:00 Legend Double Dagger 6.2 5.0 92 32 8 10.0 97.63     Mostly Cloudy
02:00 Legend Double Dagger 6.3 5.4 94 31 10 10.0 97.58     LegendNANA
03:00 Legend Double Dagger 6.5 5.5 93 31 10 10.0 97.58     LegendNANA
04:00 Legend Double Dagger 5.4 4.7 95 29 8 10.0 97.60     Mainly Clear
05:00 Legend Double Dagger 5.4 4.8 96 31 11 10.0 97.63     LegendNANA
06:00 Legend Double Dagger 5.8 4.6 92 32 10 10.0 97.68     LegendNANA
07:00 Legend Double Dagger 7.0 4.2 82 29 17 10.0 97.72     Mainly Clear
08:00 Legend Double Dagger 9.2 5.0 75 30 13 10.0 97.77     LegendNANA
09:00 Legend Double Dagger 11.3 5.7 68 31 15 10.0 97.79     LegendNANA
10:00 Legend Double Dagger 12.2 6.3 67 29 18 10.0 97.81     Mainly Clear
11:00 Legend Double Dagger 13.0 5.0 58 30 24 10.0 97.84     LegendNANA
12:00 Legend Double Dagger 14.0 2.9 47 32 26 10.0 97.83     LegendNANA
13:00 Legend Double Dagger 13.8 2.5 46 32 28 10.0 97.84     Mainly Clear
14:00 Legend Double Dagger 13.9 1.6 43 30 30 10.0 97.87     LegendNANA
15:00 Legend Double Dagger 14.2 1.6 42 32 24 10.0 97.88     LegendNANA
16:00 Legend Double Dagger 13.4 0.8 42 31 27 10.0 97.92     Mainly Clear
17:00 Legend Double Dagger 12.8 -0.1 41 31 25 10.0 97.97     LegendNANA
18:00 Legend Double Dagger 12.6 -0.6 40 32 17 10.0 98.01     LegendNANA
19:00 Legend Double Dagger 11.2 -2.9 37 31 15 10.0 98.04     Clear
20:00 Legend Double Dagger 9.0 -0.8 50 28 10 10.0 98.09     LegendNANA
21:00 Legend Double Dagger 7.5 0.0 59 27 9 10.0 98.17     LegendNANA
22:00 Legend Double Dagger 7.0 0.0 61 27 7 10.0 98.18     Clear
23:00 Legend Double Dagger 6.4 0.5 66 29 5 10.0 98.22     LegendNANA

Notes on Data Quality.

Legend

  • E = Estimated
  • M = Missing
  • NA = Not Available
  • ‡ = Partner data that is not subject to review by the National Climate Archives
Date modified: